Satellite-Ground Cal/Val Region Overpasses Predictions

Prediction of Satellite NPP Overpassing Cal/Val Region: PacNW

Region Location: (Latitude: 10.00, Longitude: 139.50) to (Latitude: 22.70, Longitude: 165.60).

Table of predicted overpasses for the next 14.0 days since TLE Epoch: 9/3/2021
Interval Starting Time Starting Location Ending Time Ending Location
1 09/04/2021 02:15:14 ( 12.16, 165.60) 09/04/2021 02:18:13 ( 22.67, 163.08)
2 09/04/2021 03:56:08 ( 10.05, 140.71) 09/04/2021 03:57:36 ( 15.22, 139.51)
3 09/04/2021 14:46:31 ( 22.68, 163.33) 09/04/2021 14:50:06 ( 10.06, 160.33)
4 09/05/2021 03:37:07 ( 10.05, 145.47) 09/05/2021 03:40:42 ( 22.67, 142.46)
5 09/05/2021 14:30:26 ( 12.29, 165.60) 09/05/2021 14:31:04 ( 10.06, 165.08)
6 09/05/2021 16:08:59 ( 22.67, 142.71) 09/05/2021 16:12:34 ( 10.05, 139.71)
7 09/06/2021 03:18:05 ( 10.04, 150.22) 09/06/2021 03:21:40 ( 22.67, 147.22)
8 09/06/2021 15:49:58 ( 22.68, 147.47) 09/06/2021 15:53:33 ( 10.06, 144.47)
9 09/07/2021 02:59:04 ( 10.04, 154.98) 09/07/2021 03:02:39 ( 22.66, 151.98)
10 09/07/2021 15:30:56 ( 22.68, 152.23) 09/07/2021 15:34:32 ( 10.00, 149.21)
11 09/08/2021 02:40:02 ( 10.04, 159.74) 09/08/2021 02:43:37 ( 22.66, 156.73)
12 09/08/2021 15:11:55 ( 22.68, 156.99) 09/08/2021 15:15:31 ( 10.00, 153.97)
13 09/09/2021 02:21:01 ( 10.04, 164.50) 09/09/2021 02:24:36 ( 22.66, 161.49)
14 09/09/2021 14:52:53 ( 22.68, 161.74) 09/09/2021 14:56:29 ( 10.00, 158.72)
15 09/10/2021 03:43:29 ( 10.04, 143.88) 09/10/2021 03:47:04 ( 22.67, 140.87)
16 09/10/2021 14:34:55 ( 18.99, 165.59) 09/10/2021 14:37:28 ( 10.01, 163.48)
17 09/10/2021 16:15:22 ( 22.68, 141.13) 09/10/2021 16:17:15 ( 16.05, 139.51)
18 09/11/2021 03:24:28 ( 10.04, 148.64) 09/11/2021 03:28:03 ( 22.66, 145.63)
19 09/11/2021 15:56:20 ( 22.68, 145.88) 09/11/2021 15:59:56 ( 10.00, 142.86)
20 09/12/2021 03:05:26 ( 10.04, 153.39) 09/12/2021 03:09:01 ( 22.66, 150.39)
21 09/12/2021 15:37:19 ( 22.68, 150.64) 09/12/2021 15:40:55 ( 10.00, 147.62)
22 09/13/2021 02:46:25 ( 10.04, 158.15) 09/13/2021 02:50:00 ( 22.66, 155.14)
23 09/13/2021 15:18:18 ( 22.68, 155.40) 09/13/2021 15:21:54 ( 10.00, 152.38)
24 09/14/2021 02:27:23 ( 10.04, 162.91) 09/14/2021 02:30:58 ( 22.67, 159.90)
25 09/14/2021 14:59:16 ( 22.68, 160.15) 09/14/2021 15:02:52 ( 10.00, 157.14)
26 09/15/2021 02:10:52 ( 18.85, 165.60) 09/15/2021 02:11:57 ( 22.67, 164.66)
27 09/15/2021 03:49:52 ( 10.05, 142.29) 09/15/2021 03:53:12 ( 21.79, 139.50)
28 09/15/2021 14:40:15 ( 22.68, 164.91) 09/15/2021 14:43:51 ( 10.00, 161.89)
29 09/15/2021 16:21:45 ( 22.68, 139.54) 09/15/2021 16:21:47 ( 22.56, 139.51)
30 09/16/2021 03:30:50 ( 10.05, 147.05) 09/16/2021 03:34:25 ( 22.67, 144.04)
31 09/16/2021 16:02:43 ( 22.68, 144.29) 09/16/2021 16:06:19 ( 10.00, 141.27)
32 09/17/2021 03:11:49 ( 10.05, 151.80) 09/17/2021 03:15:24 ( 22.67, 148.80)
